• în România
  • Lista ţărilor
  • Pe 7 zile
  • Temperatura apei
  • Hartă satelitară
  • Meteo pe hartă
  • Widget-uri
  • user-avatar
    Intrare

    Meteo pe oră la Sydney

    Astăzi, 19 Octombrie, Vineri

    Timp Temperatura Precipitaţii Vânt Presiune Umiditate
    00:00 +18°C° 0.2 mm 3 m/s 762 mmHg 95%
    01:00 +18°C° 0.2 mm 3 m/s 762 mmHg 95%
    02:00 +18°C° 0 mm 3 m/s 762 mmHg 95%
    03:00 +17°C° 0 mm 3 m/s 762 mmHg 95%
    04:00 +17°C° 0 mm 2 m/s 761 mmHg 96%
    05:00 +18°C° 0 mm 2 m/s 762 mmHg 91%
    06:00 +19°C° 0 mm 2 m/s 762 mmHg 87%
    07:00 +20°C° 0 mm 2 m/s 762 mmHg 83%
    08:00 +24°C° 0 mm 2 m/s 762 mmHg 69%
    09:00 +28°C° 0 mm 1 m/s 762 mmHg 54%
    10:00 +32°C° 0 mm 1 m/s 762 mmHg 43%
    11:00 +32°C° 0 mm 2 m/s 761 mmHg 38%
    12:00 +34°C° 0 mm 2 m/s 761 mmHg 34%
    13:00 +35°C° 0 mm 3 m/s 761 mmHg 30%
    14:00 +34°C° 0 mm 4 m/s 760 mmHg 34%
    15:00 +32°C° 0 mm 5 m/s 760 mmHg 39%
    16:00 +30°C° 0 mm 6 m/s 759 mmHg 43%
    17:00 +28°C° 0 mm 6 m/s 760 mmHg 53%
    18:00 +26°C° 0 mm 6 m/s 760 mmHg 63%
    19:00 +23°C° 0 mm 6 m/s 760 mmHg 73%
    20:00 +22°C° 0 mm 5 m/s 760 mmHg 75%
    21:00 +22°C° 0 mm 5 m/s 761 mmHg 78%
    22:00 +21°C° 0 mm 5 m/s 761 mmHg 80%
    23:00 +21°C° 0 mm 4 m/s 761 mmHg 82%

    Mâine, 20 Octombrie, Sâmbătă

    Timp Temperatura Precipitaţii Vânt Presiune Umiditate
    00:00 +20°C° 0 mm 4 m/s 760 mmHg 84%
    01:00 +20°C° 0 mm 4 m/s 760 mmHg 85%
    02:00 +19°C° 0 mm 4 m/s 760 mmHg 85%
    03:00 +19°C° 0 mm 4 m/s 760 mmHg 85%
    04:00 +19°C° 0 mm 4 m/s 759 mmHg 85%
    05:00 +20°C° 0 mm 4 m/s 760 mmHg 78%
    06:00 +21°C° 0 mm 4 m/s 760 mmHg 72%
    07:00 +22°C° 0 mm 4 m/s 760 mmHg 65%
    08:00 +26°C° 0 mm 4 m/s 760 mmHg 55%
    09:00 +29°C° 0 mm 4 m/s 759 mmHg 45%
    10:00 +33°C° 0 mm 5 m/s 759 mmHg 36%
    11:00 +34°C° 0 mm 5 m/s 759 mmHg 33%
    12:00 +35°C° 0 mm 6 m/s 758 mmHg 30%
    13:00 +36°C° 0 mm 6 m/s 758 mmHg 27%
    14:00 +34°C° 0 mm 7 m/s 757 mmHg 34%
    15:00 +32°C° 0 mm 7 m/s 757 mmHg 41%
    16:00 +29°C° 0 mm 7 m/s 756 mmHg 48%
    17:00 +27°C° 2.3 mm 7 m/s 757 mmHg 61%
    18:00 +24°C° 2.3 mm 7 m/s 757 mmHg 75%
    19:00 +22°C° 2.3 mm 6 m/s 757 mmHg 88%
    20:00 +21°C° 5 mm 5 m/s 758 mmHg 90%
    21:00 +20°C° 5 mm 4 m/s 759 mmHg 91%
    22:00 +20°C° 5 mm 3 m/s 759 mmHg 93%
    23:00 +19°C° 1.2 mm 3 m/s 759 mmHg 93%

    Poimâine, 21 Octombrie, Duminică

    Timp Temperatura Precipitaţii Vânt Presiune Umiditate
    00:00 +19°C° 1.2 mm 3 m/s 758 mmHg 94%
    01:00 +19°C° 1.2 mm 3 m/s 758 mmHg 94%
    02:00 +19°C° 0.2 mm 3 m/s 758 mmHg 94%
    03:00 +18°C° 0.2 mm 3 m/s 758 mmHg 94%
    04:00 +18°C° 0.2 mm 3 m/s 758 mmHg 94%
    05:00 +18°C° 0.2 mm 4 m/s 758 mmHg 93%
    06:00 +18°C° 0.2 mm 4 m/s 758 mmHg 93%
    07:00 +17°C° 0.2 mm 5 m/s 758 mmHg 92%
    08:00 +17°C° 0.6 mm 6 m/s 758 mmHg 91%
    09:00 +17°C° 0.6 mm 6 m/s 758 mmHg 90%
    10:00 +16°C° 0.6 mm 7 m/s 758 mmHg 89%
    11:00 +17°C° 0.4 mm 7 m/s 758 mmHg 87%
    12:00 +17°C° 0.4 mm 8 m/s 758 mmHg 86%
    13:00 +17°C° 0.4 mm 8 m/s 758 mmHg 84%
    14:00 +17°C° 0.4 mm 7 m/s 757 mmHg 86%
    15:00 +16°C° 0.4 mm 7 m/s 757 mmHg 88%
    16:00 +16°C° 0.4 mm 7 m/s 757 mmHg 89%
    17:00 +16°C° 0 mm 6 m/s 757 mmHg 90%
    18:00 +15°C° 0 mm 6 m/s 758 mmHg 91%
    19:00 +15°C° 0 mm 5 m/s 758 mmHg 92%
    20:00 +15°C° 0.1 mm 5 m/s 758 mmHg 91%
    21:00 +15°C° 0.1 mm 5 m/s 758 mmHg 91%
    22:00 +15°C° 0.1 mm 5 m/s 758 mmHg 91%
    23:00 +14°C° 0 mm 5 m/s 758 mmHg 92%

    22 Octombrie, Luni

    Timp Temperatura Precipitaţii Vânt Presiune Umiditate
    00:00 +14°C° 0 mm 4 m/s 757 mmHg 92%
    01:00 +13°C° 0 mm 4 m/s 757 mmHg 93%
    02:00 +13°C° 0 mm 4 m/s 757 mmHg 92%
    03:00 +13°C° 0 mm 4 m/s 757 mmHg 92%
    04:00 +13°C° 0 mm 4 m/s 757 mmHg 92%
    05:00 +14°C° 0 mm 3 m/s 757 mmHg 88%
    06:00 +16°C° 0 mm 3 m/s 757 mmHg 84%
    07:00 +17°C° 0 mm 3 m/s 758 mmHg 80%
    08:00 +20°C° 0 mm 3 m/s 758 mmHg 69%
    09:00 +24°C° 0 mm 2 m/s 758 mmHg 59%
    10:00 +26°C° 0 mm 2 m/s 757 mmHg 48%
    11:00 +27°C° 0 mm 2 m/s 757 mmHg 46%
    12:00 +28°C° 0 mm 2 m/s 757 mmHg 44%
    13:00 +29°C° 0 mm 2 m/s 756 mmHg 41%
    14:00 +28°C° 0 mm 2 m/s 756 mmHg 44%
    15:00 +28°C° 0 mm 3 m/s 756 mmHg 46%
    16:00 +27°C° 0 mm 3 m/s 756 mmHg 48%
    17:00 +25°C° 0 mm 3 m/s 756 mmHg 54%
    18:00 +24°C° 0 mm 3 m/s 756 mmHg 59%
    19:00 +21°C° 0 mm 3 m/s 757 mmHg 65%
    20:00 +20°C° 0 mm 3 m/s 757 mmHg 66%
    21:00 +19°C° 0 mm 3 m/s 758 mmHg 67%
    22:00 +18°C° 0 mm 3 m/s 758 mmHg 68%
    23:00 +18°C° 0 mm 3 m/s 758 mmHg 67%

    23 Octombrie, Marţi

    Timp Temperatura Precipitaţii Vânt Presiune Umiditate
    00:00 +17°C° 0 mm 3 m/s 758 mmHg 65%
    01:00 +17°C° 0 mm 3 m/s 757 mmHg 64%
    02:00 +16°C° 0 mm 3 m/s 758 mmHg 63%
    03:00 +16°C° 0 mm 3 m/s 758 mmHg 62%
    04:00 +16°C° 0 mm 3 m/s 758 mmHg 61%
    05:00 +17°C° 0 mm 3 m/s 758 mmHg 57%
    06:00 +18°C° 0 mm 3 m/s 758 mmHg 52%
    07:00 +20°C° 0 mm 3 m/s 759 mmHg 48%
    08:00 +24°C° 0 mm 3 m/s 759 mmHg 40%
    09:00 +27°C° 0 mm 3 m/s 758 mmHg 32%
    10:00 +31°C° 0 mm 3 m/s 758 mmHg 24%
    11:00 +33°C° 0 mm 3 m/s 758 mmHg 22%
    12:00 +34°C° 0 mm 4 m/s 757 mmHg 20%
    13:00 +36°C° 0 mm 4 m/s 757 mmHg 17%
    14:00 +35°C° 0 mm 4 m/s 756 mmHg 19%
    15:00 +35°C° 0 mm 4 m/s 756 mmHg 21%
    16:00 +35°C° 0 mm 5 m/s 756 mmHg 24%
    17:00 +32°C° 0 mm 4 m/s 756 mmHg 28%
    18:00 +29°C° 0 mm 3 m/s 757 mmHg 33%
    19:00 +26°C° 0 mm 3 m/s 757 mmHg 38%
    20:00 +25°C° 0 mm 3 m/s 757 mmHg 41%
    21:00 +23°C° 0 mm 4 m/s 758 mmHg 45%
    22:00 +21°C° 0 mm 4 m/s 758 mmHg 48%
    23:00 +20°C° 0 mm 5 m/s 758 mmHg 51%

    24 Octombrie, Miercuri

    Timp Temperatura Precipitaţii Vânt Presiune Umiditate
    00:00 +19°C° 0 mm 6 m/s 758 mmHg 54%
    01:00 +18°C° 0 mm 7 m/s 759 mmHg 57%
    02:00 +17°C° 0 mm 6 m/s 759 mmHg 62%
    03:00 +16°C° 0 mm 6 m/s 759 mmHg 67%
    04:00 +15°C° 0 mm 5 m/s 760 mmHg 73%
    05:00 +15°C° 0 mm 5 m/s 761 mmHg 70%
    06:00 +17°C° 0 mm 4 m/s 762 mmHg 66%
    07:00 +18°C° 0 mm 3 m/s 762 mmHg 63%
    08:00 +20°C° 0 mm 3 m/s 763 mmHg 54%
    09:00 +22°C° 0 mm 3 m/s 763 mmHg 45%
    10:00 +25°C° 0 mm 3 m/s 763 mmHg 36%
    11:00 +26°C° 0 mm 3 m/s 762 mmHg 33%
    12:00 +27°C° 0 mm 3 m/s 762 mmHg 31%
    13:00 +28°C° 0 mm 3 m/s 762 mmHg 28%
    14:00 +27°C° 0 mm 4 m/s 761 mmHg 34%
    15:00 +26°C° 0 mm 5 m/s 761 mmHg 40%
    16:00 +23°C° 0 mm 6 m/s 761 mmHg 46%
    17:00 +21°C° 0 mm 5 m/s 762 mmHg 55%
    18:00 +19°C° 0 mm 5 m/s 762 mmHg 64%
    19:00 +17°C° 0 mm 4 m/s 763 mmHg 73%
    20:00 +17°C° 0 mm 4 m/s 764 mmHg 75%
    21:00 +17°C° 0 mm 4 m/s 764 mmHg 78%
    22:00 +17°C° 0 mm 4 m/s 764 mmHg 81%
    23:00 +17°C° 0.2 mm 4 m/s 764 mmHg 83%
    Arată mai mult